{"data":{"norad_id":82729,"epoch":"2026-09-14T17:53:34.244736Z","epoch_age_seconds":515509,"freshness":"STALE","line1":"1 82729U          26257.74553524  .00000748  00000+0  25728-2 0  9999","line2":"2 82729  67.9714  28.4550 0836991 181.8269 177.9614 12.18073125568812","mean_motion":12.18073125,"eccentricity":0.0836991,"inclination_deg":67.9714,"raan_deg":28.455,"arg_perigee_deg":181.8269,"mean_anomaly_deg":177.9614,"bstar":0.0025728,"rev_number":56881,"period_min":118.2195034473,"perigee_km":933.10311125214,"apogee_km":2268.787092782,"semimajor_km":7979.0821020171,"source":"CELESTRAK","updated_at":"2026-09-20T09:00:32.438637Z"}}